Location: Elende
(51.4317°N, 10.6316°E)
Time: 19:02:24
(UTC+00:00)

Cosmos 2026 Rocket - Pass Details

Date: 18 September 2020
Orbit: 940 x 1000 km, 82.9° (Epoch: 21 October)

Event Time Altitude Azimuth Distance (km) Brightness Sun altitude
Rises 19:55:08 0° 349° (NNW) 3,713 7.7 -22.9°
Reaches altitude 10° 19:57:39 10° 348° (NNW) 2,767 7.0 -23.2°
Maximum altitude 20:04:01 80° 264° (W) 1,019 4.1 -24.0°
Enters shadow 20:06:56 35° 181° (S) 1,560 4.7 -24.4°
